Wind_Speed
37 38 42 44 45 47 52 58 58 59 62 65 67 72 70 71 70 64 59 57 54 59 60 71 76 90 96 90 89 84 78 71 70 71 74 73 65 60 59 53 50 48 49 49 63
40 44 47 50 54 55 59 63 65 64 68 71 72 75 74 74 73 73 65 63 59 61 60 65 75 84 96 98 97 92 84 77 83 79 77 77 70 66 63 58 52 50 48 43 50
39 44 50 53 58 63 67 67 68 71 73 73 78 80 80 78 77 75 73 68 64 61 61 62 71 80 87 101 105 100 86 87 87 88 83 79 74 71 66 64 58 53 50 48 49
46 50 53 55 61 67 72 76 77 78 77 78 82 83 84 87 87 75 77 72 66 61 61 62 66 76 83 88 104 110 96 93 92 93 91 82 81 76 70 69 65 57 51 48 49
49 50 55 57 66 71 75 79 83 90 87 87 89 88 87 91 93 92 77 73 67 63 63 64 66 71 81 87 98 106 106 102 99 96 91 89 83 82 74 74 70 60 56 50 49
50 52 57 63 67 70 75 82 91 91 91 93 94 92 93 93 96 93 82 69 66 62 64 64 67 70 76 87 93 100 114 111 106 101 94 90 87 87 77 77 73 64 60 55 49
55 55 57 64 69 72 76 82 88 95 97 97 99 95 95 100 96 87 82 70 59 60 61 64 69 71 73 84 90 98 110 117 107 104 95 95 91 85 84 80 78 70 63 59 53
53 55 59 68 72 74 78 82 95 96 104 105 101 94 93 98 94 85 78 67 56 56 58 62 66 69 72 81 90 98 108 114 109 109 103 105 83 87 89 85 82 75 69 64 56
58 60 67 75 79 81 83 90 93 97 108 110 104 103 99 97 90 84 78 63 57 54 55 61 63 67 72 80 89 97 98 100 108 115 113 113 93 95 93 90 86 81 74 68 61
63 68 72 79 83 87 87 94 99 106 111 109 102 104 104 96 83 84 71 60 56 55 55 60 61 65 69 75 77 81 91 101 106 119 123 119 105 105 100 95 91 86 79 73 65
69 72 77 80 89 95 98 103 110 113 113 108 106 105 110 95 82 79 67 57 55 55 55 57 57 55 65 77 83 95 104 104 109 119 130 124 113 109 106 101 95 90 83 77 70
72 76 81 86 92 99 103 111 115 118 117 109 108 108 100 89 76 68 64 56 51 52 55 57 47 62 74 80 83 92 100 102 107 117 132 127 120 112 111 101 96 95 88 82 75
76 77 85 92 95 99 109 114 120 125 117 110 112 108 94 81 72 66 59 57 54 54 57 53 55 67 72 78 80 85 93 92 100 118 132 134 129 125 112 104 100 97 92 87 80
79 85 94 97 97 103 112 119 127 129 123 118 117 100 82 74 69 64 61 56 57 57 57 52 64 68 76 76 80 83 84 93 102 113 129 136 134 127 121 114 105 97 97 90 85
84 85 98 100 99 111 118 125 128 126 122 121 115 90 75 71 66 61 61 56 58 59 58 58 65 70 73 70 84 78 91 94 102 112 129 135 143 128 128 121 113 102 97 92 89
87 90 93 97 100 112 121 125 129 125 121 120 107 89 81 73 67 62 60 56 57 60 62 61 66 67 68 74 82 77 88 91 101 114 133 131 143 135 132 118 110 102 100 97 94
90 92 97 98 106 114 122 129 131 125 124 120 100 90 83 75 66 58 56 52 52 55 61 61 65 63 65 71 80 75 84 88 97 113 125 130 142 135 130 121 116 111 103 102 98
92 98 104 105 112 119 126 134 132 128 121 115 98 91 84 72 62 54 51 48 48 49 52 56 56 65 68 68 75 77 83 87 86 98 112 118 133 125 129 129 123 120 109 106 103
93 98 105 105 112 122 132 138 134 127 123 108 96 90 79 67 57 50 46 45 45 47 47 51 54 61 67 70 80 78 79 77 88 91 106 119 127 124 134 134 130 127 117 111 105
99 104 107 113 119 130 137 145 135 127 120 105 94 88 76 62 51 47 46 41 43 44 47 42 46 57 60 65 69 73 79 84 90 94 107 120 122 124 134 136 134 130 122 112 107
99 102 104 115 128 135 142 144 134 131 117 104 92 83 73 58 49 45 44 42 39 42 42 38 44 55 57 63 70 78 79 81 88 91 100 112 117 115 132 139 139 131 122 112 108
101 106 118 122 130 138 145 141 135 126 113 101 86 74 67 59 49 45 45 41 39 39 38 36 45 54 57 66 74 79 81 83 87 90 95 104 105 115 126 140 139 131 123 117 116
105 112 120 124 131 139 144 147 139 129 114 100 84 70 58 57 50 47 47 44 39 36 37 35 45 50 54 65 76 80 83 82 84 87 90 96 101 114 121 134 139 134 129 122 119
108 114 119 127 134 142 150 151 138 130 112 100 84 69 58 51 49 47 47 44 38 33 36 36 43 48 53 62 71 76 78 79 78 78 90 84 94 103 117 134 138 137 131 127 122
111 117 125 134 135 142 148 148 136 129 111 100 83 68 57 52 48 43 44 41 36 32 34 36 41 46 52 59 64 68 73 78 73 80 84 88 94 103 114 129 142 140 136 130 127
113 123 128 134 137 142 151 138 138 125 106 95 80 67 59 52 45 41 40 37 33 30 33 34 38 43 50 56 62 64 72 73 72 78 85 93 91 103 107 125 138 141 137 132 129
115 122 131 135 140 146 148 136 132 120 103 91 78 66 58 52 44 39 37 31 32 27 31 33 36 41 47 50 58 66 70 70 72 80 89 90 93 101 113 122 140 146 142 137 132
Wind_Direction
356 350 348 347 346 340 338 337 335 333 332 331 331 328 323 318 315 310 303 292 282 272 259 249 242 235 236 233 231 230 230 223 229 230 229 230 227 226 230 230 232 231 233 232 235
351 348 347 344 341 338 336 338 336 334 331 330 328 325 319 315 312 307 304 298 292 280 268 254 244 238 233 232 231 230 227 227 231 230 230 230 226 227 229 230 230 232 231 230 236
346 348 342 342 339 339 337 337 333 331 330 328 327 324 319 313 307 310 307 300 290 278 270 256 247 240 235 231 232 231 228 228 229 231 228 230 227 225 227 230 229 230 232 231 237
335 337 340 337 337 336 335 333 333 331 329 326 324 321 319 314 308 309 304 300 289 277 264 258 245 241 235 234 230 229 226 228 227 229 229 227 228 225 225 229 229 228 231 232 236
328 328 333 333 334 335 334 334 333 332 329 326 323 319 316 312 309 308 305 298 287 275 264 255 246 238 235 232 230 226 227 226 227 228 230 228 226 226 221 228 228 227 228 233 234
325 326 328 333 335 334 334 334 333 333 330 326 321 319 314 307 305 304 305 297 284 273 265 255 246 239 233 232 230 227 223 223 224 227 228 229 226 226 224 226 228 225 228 232 233
328 330 335 337 336 335 333 329 334 333 330 327 323 319 313 307 307 304 301 296 283 273 267 257 248 242 233 230 229 226 222 222 220 225 227 227 225 225 225 225 227 225 226 229 230
332 333 333 334 332 331 333 330 331 331 330 329 325 319 313 311 308 306 302 296 284 273 266 260 250 242 235 230 227 227 223 220 219 224 226 227 222 225 224 223 225 223 223 226 226
330 328 328 330 330 329 329 331 332 331 330 329 324 318 315 313 310 308 303 294 281 273 261 256 250 241 235 231 227 226 225 220 220 221 223 226 221 226 223 222 223 221 221 223 224
329 328 331 334 333 333 332 331 331 332 330 329 325 318 315 315 310 307 304 291 281 273 260 253 249 241 238 234 230 232 226 221 215 220 222 223 219 224 223 221 221 220 218 221 221
327 328 333 330 334 334 332 332 332 330 330 328 321 319 318 315 311 307 300 290 280 272 261 251 250 244 240 233 225 222 221 219 213 218 219 220 218 220 222 220 220 220 217 219 218
330 331 330 327 328 332 333 332 332 331 329 327 322 317 318 314 310 305 298 290 279 271 263 255 244 240 234 232 228 223 219 217 217 216 219 219 217 217 222 220 217 220 217 216 216
329 330 328 331 331 332 331 333 332 333 329 326 322 322 319 314 310 303 295 287 279 271 263 256 241 236 235 233 231 226 219 217 216 218 219 217 215 218 219 218 217 219 218 215 215
328 331 329 330 329 330 332 331 331 333 327 326 326 325 318 313 307 301 291 286 278 271 264 254 243 236 232 231 232 225 224 219 215 219 216 218 215 215 216 218 219 216 219 216 216
327 329 329 329 329 331 333 335 334 331 327 327 327 324 319 312 306 299 291 284 276 269 263 252 243 237 235 231 231 222 224 217 215 217 215 217 217 211 213 216 218 215 217 217 216
327 329 329 331 333 336 335 337 335 331 328 329 329 326 321 315 309 301 291 283 275 267 260 249 246 240 233 231 232 222 226 221 218 215 215 214 218 208 212 214 216 216 217 217 216
329 330 332 331 335 335 337 338 338 331 329 329 330 325 322 318 311 302 292 283 273 262 258 252 245 241 234 228 230 223 224 224 220 216 216 214 218 207 210 212 214 218 217 217 217
331 332 333 335 337 339 340 341 339 333 333 331 330 326 323 319 312 303 294 285 273 264 255 252 246 237 232 226 227 222 221 223 222 219 216 218 217 209 209 211 214 219 217 218 217
331 334 336 335 339 342 343 342 340 335 335 332 331 327 323 319 311 304 295 286 277 268 257 250 242 240 231 225 222 218 217 224 222 214 212 216 217 210 206 209 212 216 217 218 217
332 335 337 334 339 341 342 341 340 338 334 331 331 328 323 318 311 305 296 288 276 268 262 250 237 236 229 228 226 221 217 219 221 214 212 212 214 209 206 207 210 213 216 216 217
331 336 338 339 341 342 344 343 341 338 335 331 332 328 320 316 309 303 294 289 279 272 262 248 234 235 227 219 219 218 218 217 219 216 216 213 214 207 208 206 209 211 214 215 216
331 338 339 338 340 342 343 343 342 339 336 332 331 328 319 314 309 302 293 287 278 270 262 246 235 235 223 215 216 216 218 215 216 214 218 216 211 209 208 205 208 210 213 213 215
333 338 342 342 342 345 344 342 342 339 336 333 332 329 320 314 310 301 293 289 280 269 260 245 237 234 222 218 215 216 217 215 213 213 213 216 210 208 208 205 205 208 209 213 216
336 339 341 341 342 343 343 343 340 337 337 334 332 329 324 316 308 301 295 289 281 267 255 243 236 230 222 219 217 217 216 217 211 210 213 212 211 207 209 205 204 207 208 212 214
337 339 338 339 342 341 341 342 342 338 336 335 332 331 326 321 313 306 296 292 281 265 252 243 234 228 223 218 214 216 216 217 210 207 210 208 208 203 207 205 204 205 207 210 214
338 338 340 341 343 343 343 342 344 339 335 334 332 331 327 322 317 309 300 294 281 263 254 242 235 227 225 217 212 210 213 215 209 205 207 211 204 206 205 207 204 206 207 209 214
338 339 339 342 342 343 344 341 343 340 336 334 333 331 326 320 319 311 303 297 278 262 251 241 232 226 226 212 209 210 209 209 209 206 208 209 205 207 205 205 206 205 207 210 212
Height
10789 10783 10778 10772 10767 10763 10757 10751 10745 10738 10730 10723 10715 10708 10701 10692 10685 10679 10675 10667 10666 10656 10661 10661 10669 10675 10679 10692 10699 10708 10725 10746 10750 10749 10746 10753 10766 10774 10777 10785 10789 10793 10798 10808 10805
10782 10776 10769 10763 10757 10752 10747 10740 10732 10726 10719 10712 10704 10694 10685 10675 10666 10659 10657 10650 10646 10640 10640 10642 10645 10647 10658 10669 10679 10688 10707 10730 10722 10727 10733 10740 10753 10761 10768 10773 10779 10784 10789 10796 10794
10776 10770 10764 10756 10748 10740 10733 10727 10721 10714 10706 10698 10689 10678 10667 10655 10646 10645 10633 10628 10622 10617 10615 10617 10620 10626 10635 10645 10657 10670 10698 10699 10705 10706 10714 10725 10741 10746 10756 10764 10767 10772 10780 10784 10785
10769 10763 10757 10749 10740 10730 10722 10712 10703 10696 10690 10681 10671 10660 10647 10630 10614 10627 10610 10603 10597 10592 10589 10589 10596 10602 10611 10622 10624 10638 10669 10677 10683 10685 10695 10711 10722 10733 10743 10749 10755 10763 10772 10776 10778
10763 10757 10750 10742 10733 10723 10710 10699 10688 10676 10667 10658 10648 10639 10628 10608 10594 10585 10592 10578 10569 10566 10564 10562 10568 10574 10588 10591 10597 10621 10640 10648 10658 10666 10683 10692 10709 10717 10730 10735 10742 10754 10762 10765 10768
10756 10750 10743 10735 10724 10714 10702 10687 10672 10662 10650 10641 10628 10620 10605 10586 10574 10558 10554 10556 10540 10540 10536 10539 10541 10547 10560 10565 10576 10589 10599 10619 10633 10648 10664 10681 10692 10701 10718 10721 10732 10742 10751 10753 10759
10746 10739 10730 10721 10713 10703 10691 10679 10667 10649 10637 10621 10608 10596 10583 10553 10545 10536 10524 10519 10519 10513 10511 10511 10518 10524 10535 10540 10549 10559 10571 10588 10620 10636 10653 10657 10672 10699 10701 10708 10717 10730 10739 10742 10750
10737 10728 10720 10712 10702 10692 10681 10666 10652 10637 10616 10600 10581 10567 10553 10525 10513 10504 10498 10492 10491 10489 10486 10484 10490 10501 10512 10516 10524 10531 10541 10569 10613 10613 10632 10630 10677 10677 10681 10690 10701 10715 10725 10730 10739
10726 10718 10710 10699 10689 10678 10666 10652 10639 10622 10598 10577 10557 10534 10517 10502 10481 10474 10466 10464 10461 10462 10461 10457 10463 10475 10484 10491 10499 10509 10538 10562 10576 10590 10596 10604 10652 10649 10657 10670 10683 10697 10711 10719 10728
10715 10705 10695 10682 10670 10658 10647 10634 10618 10600 10581 10557 10537 10508 10491 10475 10460 10442 10441 10435 10434 10432 10434 10434 10440 10449 10461 10471 10495 10501 10509 10525 10554 10560 10559 10577 10620 10619 10636 10651 10665 10678 10693 10706 10717
10702 10691 10678 10665 10651 10637 10623 10606 10593 10576 10557 10533 10509 10491 10449 10448 10431 10416 10411 10410 10407 10405 10406 10412 10420 10439 10441 10435 10443 10451 10466 10491 10517 10518 10523 10549 10589 10598 10610 10627 10646 10663 10679 10693 10705
10688 10675 10661 10648 10633 10619 10602 10585 10567 10547 10524 10504 10480 10459 10440 10414 10409 10396 10386 10384 10382 10380 10382 10388 10410 10401 10394 10402 10416 10427 10442 10471 10486 10497 10498 10531 10565 10576 10586 10619 10635 10647 10663 10678 10690
10675 10661 10645 10631 10617 10601 10582 10562 10540 10517 10495 10481 10453 10428 10405 10390 10380 10371 10365 10358 10357 10358 10357 10370 10377 10371 10376 10382 10393 10408 10425 10453 10472 10462 10469 10497 10526 10548 10580 10599 10613 10630 10649 10662 10677
10664 10649 10629 10615 10600 10582 10561 10539 10515 10488 10460 10447 10424 10402 10382 10368 10355 10348 10337 10336 10331 10331 10336 10348 10341 10346 10346 10360 10369 10383 10405 10411 10426 10427 10453 10468 10497 10528 10557 10576 10593 10615 10630 10651 10664
10651 10640 10616 10598 10581 10562 10540 10515 10489 10465 10434 10411 10393 10374 10359 10343 10331 10326 10313 10310 10305 10304 10308 10317 10315 10318 10331 10348 10333 10367 10363 10381 10390 10402 10425 10432 10455 10516 10522 10548 10576 10598 10619 10637 10651
10637 10627 10612 10589 10571 10548 10521 10495 10472 10438 10409 10387 10365 10344 10329 10318 10307 10297 10289 10284 10279 10276 10277 10285 10285 10295 10310 10316 10314 10343 10344 10359 10365 10381 10377 10421 10428 10485 10504 10547 10573 10590 10603 10618 10633
10620 10607 10592 10575 10556 10531 10504 10476 10443 10417 10386 10362 10338 10320 10304 10291 10279 10270 10261 10256 10254 10252 10250 10255 10261 10271 10282 10291 10292 10318 10321 10335 10343 10349 10383 10408 10401 10467 10502 10532 10555 10564 10585 10601 10616
10608 10589 10570 10552 10533 10511 10484 10453 10422 10390 10363 10336 10314 10293 10278 10266 10254 10246 10238 10232 10230 10229 10231 10232 10245 10245 10254 10268 10276 10293 10298 10309 10331 10352 10386 10397 10394 10463 10495 10511 10537 10548 10569 10581 10596
10597 10583 10558 10537 10517 10491 10464 10430 10399 10367 10333 10311 10293 10274 10258 10246 10233 10225 10219 10212 10208 10207 10210 10212 10222 10220 10233 10242 10244 10272 10283 10308 10304 10325 10340 10351 10382 10424 10459 10483 10502 10520 10543 10563 10585
10577 10561 10538 10519 10495 10464 10441 10411 10374 10344 10316 10293 10272 10252 10236 10227 10216 10206 10199 10196 10191 10189 10188 10197 10202 10202 10211 10224 10242 10259 10262 10268 10282 10305 10313 10331 10363 10412 10437 10463 10480 10500 10522 10550 10571
10567 10546 10524 10498 10469 10440 10414 10386 10357 10328 10300 10275 10254 10234 10217 10210 10198 10191 10184 10177 10176 10172 10175 10181 10185 10182 10194 10211 10221 10228 10243 10258 10266 10288 10300 10326 10353 10405 10415 10440 10456 10486 10513 10540 10557
10549 10526 10502 10478 10454 10424 10394 10365 10338 10312 10285 10261 10241 10222 10202 10192 10183 10175 10167 10163 10160 10158 10159 10165 10165 10166 10180 10188 10199 10210 10219 10233 10249 10273 10291 10314 10352 10376 10392 10415 10443 10473 10500 10516 10525
10530 10508 10487 10461 10430 10407 10379 10346 10312 10286 10264 10244 10224 10208 10193 10178 10170 10160 10154 10149 10147 10146 10146 10150 10149 10154 10169 10174 10181 10190 10200 10218 10239 10259 10281 10297 10329 10353 10373 10399 10422 10447 10475 10493 10506
10511 10490 10470 10445 10412 10381 10351 10332 10297 10270 10246 10225 10207 10193 10181 10168 10158 10149 10142 10137 10135 10135 10132 10135 10137 10144 10152 10161 10174 10185 10197 10212 10231 10259 10261 10292 10315 10351 10362 10379 10405 10428 10454 10470 10488
10492 10474 10451 10425 10400 10374 10348 10311 10276 10247 10225 10207 10192 10179 10167 10156 10146 10139 10129 10125 10124 10123 10122 10123 10126 10132 10139 10149 10164 10179 10194 10204 10228 10243 10262 10273 10300 10323 10342 10362 10383 10404 10425 10449 10466
10477 10455 10438 10415 10386 10363 10327 10301 10267 10236 10216 10196 10180 10165 10154 10144 10134 10126 10118 10115 10112 10113 10112 10113 10116 10123 10127 10139 10154 10171 10180 10198 10219 10235 10252 10260 10295 10311 10332 10345 10368 10393 10411 10432 10448
10461 10444 10418 10394 10368 10340 10314 10285 10264 10232 10208 10184 10167 10154 10144 10133 10124 10114 10107 10105 10103 10103 10102 10103 10108 10115 10119 10133 10149 10157 10171 10188 10208 10219 10228 10253 10276 10290 10304 10324 10347 10366 10390 10411 10429